This is the latest recevied weather packets stored in our database for station/object SV1JSO-13. If no packets are shown the sender has not sent any weather packets the latest 10 day(s).
| Time | Temp. | Humidity | Pressure | Rain* | Wind** | Luminosity | Snow |
|---|---|---|---|---|---|---|---|
| 1788612001 | 32.78° C | 26% | 1010.1 hPa | 0 mm | - | 606 W/m² | - |
| 1788611701 | 32.22° C | 27% | 1009.9 hPa | 0 mm | - | 612 W/m² | - |
| 1788611401 | 32.22° C | 27% | 1010.1 hPa | 0 mm | - | 624 W/m² | - |
| 1788611101 | 32.78° C | 27% | 1010 hPa | 0 mm | - | 634 W/m² | - |
| 1788610823 | 32.22° C | 27% | 1010.2 hPa | 0 mm | - | 645 W/m² | - |
| 1788610501 | 32.22° C | 27% | 1010.1 hPa | 0 mm | - | 657 W/m² | - |
| 1788610201 | 32.22° C | 27% | 1010.2 hPa | 0 mm | - | 664 W/m² | - |
| 1788609901 | 32.22° C | 27% | 1010.3 hPa | 0 mm | - | 667 W/m² | - |
| 1788609601 | 32.22° C | 27% | 1010.2 hPa | 0 mm | - | 677 W/m² | - |
| 1788609333 | 32.22° C | 27% | 1010.3 hPa | 0 mm | - | 689 W/m² | - |
| 1788609000 | 32.22° C | 26% | 1010.3 hPa | 0 mm | - | 699 W/m² | - |
| 1788608701 | 32.22° C | 26% | 1010.3 hPa | 0 mm | - | 713 W/m² | - |
| 1788608401 | 31.67° C | 27% | 1010.4 hPa | 0 mm | - | 715 W/m² | - |
| 1788608101 | 32.22° C | 27% | 1010.4 hPa | 0 mm | - | 720 W/m² | - |
| 1788607801 | 32.22° C | 27% | 1010.3 hPa | 0 mm | - | 719 W/m² | - |
| 1788607501 | 32.22° C | 27% | 1010.3 hPa | 0 mm | - | 732 W/m² | - |
| 1788607201 | 31.67° C | 27% | 1010.3 hPa | 0 mm | - | 735 W/m² | - |
| 1788606901 | 31.67° C | 27% | 1010.3 hPa | 0 mm | - | 744 W/m² | - |
| 1788606601 | 31.67° C | 27% | 1010.5 hPa | 0 mm | - | 745 W/m² | - |
| 1788606301 | 31.67° C | 25% | 1010.4 hPa | 0 mm | - | 746 W/m² | - |
| 1788606001 | 31.67° C | 26% | 1010.5 hPa | 0 mm | - | 752 W/m² | - |
| 1788605701 | 31.67° C | 26% | 1010.6 hPa | 0 mm | - | 760 W/m² | - |
| 1788605401 | 31.67° C | 25% | 1010.5 hPa | 0 mm | - | 753 W/m² | - |
| 1788605101 | 31.67° C | 26% | 1010.6 hPa | 0 mm | - | 752 W/m² | - |
| 1788604801 | 31.67° C | 26% | 1010.5 hPa | 0 mm | - | 754 W/m² | - |
* Rain latest hour (hover to see other rain measurements)
** Current wind speed in m/s (hover to see current wind gust speed)